Showing default

OPS 9345 (IDSCS 23), 3288

Orbit data source: Space-Track

OPS 9345 (IDSCS 23), 3288 is a payload satellite owned by SAMSO (US) in GEO that was launched on Thu, 13 Jun 1968 UTC via a TITAN IIIC launch vehicle from the Air Force Eastern Test Range (AFETR). Payload-class satellites include a variety of spacecraft equipped with specific instruments for various scientific and technological missions. These include communications satellites like Starlink; space stations such as the ISS; scientific satellites like the Hubble; Earth observation satellites from companies like Planet Labs, Umbra, and HawkEye 360; GPS; miniature CubeSats for education and research; and military/defense satellites.

Not visible in the next 10 days
Identifier
3288, 1968-050E
Orbit
GEO
Country
Flag of USUS
Related business
Manufacturer
Philco-Ford
Mission
Non-operational spacecraft
Bus & Motor
IDCSP, Unknown motor
Mass
45 kg wet, 45 kg dry
Launch date (UTC)
1968-06-13 (58 years ago)
Launch vehicle
TITAN IIIC
Launch site
Air Force Eastern Test Range (AFETR)
Object type
Payload
Rocket body
Debris
Shape & HBR
Unknown
Radar Cross Section
Small (<0.1 m²)

Expand to show TLE details & history
Last TLE update: 19 hours ago

TLE from 19 hours ago
0 OPS 9345 (IDSCS 23)
1 03288U 68050E   26033.84377102 -.00000068  00000-0  00000-0 0  9991
2 03288   6.8255  54.0609 0034371 142.9624 229.6918  1.07477763137807
Epoch: 2026-02-02T20:15Z
TLE epoch observation values (Epoch: 2026-02-02T20:15:01.816Z)
Latitude
1.4476°
Longitude
-10.43443°
Altitude
33,968.524 km
Speed
3.14 km/s
True Right ascension
04h 25m 25s
True Declination
1° 26' 46"
Sunlit
Object was in daylight at epoch
Visualization orbit readout
Latitude
Unknown
Longitude
Unknown
Altitude
Unknown
Speed
Unknown
Apparent Right ascension
Unknown
Apparent Declination
Unknown
Sunlit
N/A
Visualization observer readout
Local Sidereal Time
16:47:01
Azimuth
Unknown
Elevation
Unknown
Doppler factor
Unknown
Orbital elements
Apogee altitude
34,019.696 km
Perigee altitude
33,742.944 km
Semi-major axis
40,259.457 km
Eccentricity
0.00344
Inclination
6.8255°
RAAN
54.0609°
Arg. of periapsis
142.9624°
True anomaly
229.39228°
Mean anomaly
229.6918°
Eccentric anomaly
229.54196°
Mean motion
0.26868 °/min
Orbital period
1,339.87 mins
BSTAR
0
Loading maneuver chart data...
Computing Atmospheric mass density...
Loading historical data...
Loading historical data...
Loading historical data...
Loading historical data...
Loading historical data...
Loading historical data...
Loading historical data...

Documentation

Showing up to 5 results
|